AAL2105 KCLT-KCHS

Flight info

Callsign AAL2105
Flight time 0h 43m
Altitude 20000
Route KWEEN5 UNJAM OSPRI7
Aircraft A320/M-SDE3FGHIRWY/LB1

Departure

Time 2026-04-26 17:05
Airport Charlotte Douglas International Airport (KCLT)

Arrival

Time 2026-04-26 17:48
Airport Charleston International Airport (KCHS)
Time Latitude Longitude Altitude Speed Heading
2026-04-26 16:36 35.21748 -80.94242 732 ft 0 kts 20°
2026-04-26 16:49 35.21735 -80.94248 732 ft 3 kts 20°
2026-04-26 16:49 35.21716 -80.94257 732 ft 3 kts 21°
2026-04-26 16:50 35.21698 -80.94266 732 ft 3 kts 28°
2026-04-26 16:50 35.21681 -80.94279 732 ft 3 kts 51°
2026-04-26 16:50 35.21673 -80.94297 731 ft 2 kts 95°
2026-04-26 16:50 35.21675 -80.94315 731 ft 2 kts 97°
2026-04-26 16:51 35.21676 -80.94322 731 ft 2 kts 97°
2026-04-26 16:52 35.21676 -80.94323 731 ft 0 kts 97°
2026-04-26 16:58 35.21675 -80.94315 732 ft 2 kts 97°
2026-04-26 16:58 35.21673 -80.94294 731 ft 5 kts 96°
2026-04-26 16:58 35.21691 -80.94147 732 ft 11 kts 69°
2026-04-26 16:59 35.21719 -80.94052 731 ft 13 kts 78°
2026-04-26 16:59 35.21593 -80.93872 733 ft 17 kts 139°
2026-04-26 17:00 35.21388 -80.93667 733 ft 21 kts 158°
2026-04-26 17:00 35.21075 -80.93633 733 ft 24 kts 176°
2026-04-26 17:00 35.20902 -80.93615 733 ft 26 kts 173°
2026-04-26 17:01 35.20719 -80.93594 733 ft 26 kts 168°
2026-04-26 17:01 35.20550 -80.93583 733 ft 25 kts 182°
2026-04-26 17:01 35.20388 -80.93577 733 ft 21 kts 175°
2026-04-26 17:01 35.20237 -80.93560 733 ft 22 kts 177°
2026-04-26 17:02 35.20166 -80.93555 733 ft 0 kts 175°
2026-04-26 17:02 35.20163 -80.93554 733 ft 2 kts 175°
2026-04-26 17:02 35.20143 -80.93552 733 ft 4 kts 174°
2026-04-26 17:02 35.20112 -80.93535 733 ft 6 kts 135°
2026-04-26 17:03 35.20109 -80.93525 733 ft 0 kts 108°
2026-04-26 17:03 35.20108 -80.93522 733 ft 1 kts 108°
2026-04-26 17:04 35.20101 -80.93476 733 ft 8 kts 93°
2026-04-26 17:04 35.20131 -80.93419 733 ft 9 kts 22°
2026-04-26 17:04 35.20204 -80.93422 735 ft 17 kts 355°
2026-04-26 17:04 35.20639 -80.93460 736 ft 108 kts 355°
2026-04-26 17:05 35.21622 -80.93526 836 ft 164 kts
2026-04-26 17:05 35.22790 -80.93525 1681 ft 169 kts 359°
2026-04-26 17:05 35.23953 -80.93468 2344 ft 165 kts 358°
2026-04-26 17:05 35.25140 -80.93206 2662 ft 186 kts 13°
2026-04-26 17:06 35.26447 -80.92685 2928 ft 209 kts 16°
2026-04-26 17:06 35.27869 -80.92059 3252 ft 231 kts 23°
2026-04-26 17:06 35.29186 -80.90790 3588 ft 257 kts 56°
2026-04-26 17:06 35.29756 -80.88659 4080 ft 276 kts 92°
2026-04-26 17:07 35.29191 -80.86445 4969 ft 276 kts 127°
2026-04-26 17:07 35.27728 -80.84988 5842 ft 275 kts 161°
2026-04-26 17:07 35.25860 -80.84583 6742 ft 273 kts 179°
2026-04-26 17:07 35.23957 -80.84546 7556 ft 276 kts 184°
2026-04-26 17:08 35.22029 -80.84612 7869 ft 277 kts 185°
2026-04-26 17:08 35.20750 -80.84668 7969 ft 278 kts 184°
2026-04-26 17:08 35.18792 -80.84738 8239 ft 280 kts 184°
2026-04-26 17:08 35.16845 -80.84781 9175 ft 281 kts 183°
2026-04-26 17:09 35.14901 -80.84801 10024 ft 284 kts 182°
2026-04-26 17:09 35.13556 -80.84809 10276 ft 298 kts 182°
2026-04-26 17:09 35.10636 -80.84808 10623 ft 327 kts 182°
2026-04-26 17:09 35.08320 -80.84792 11191 ft 336 kts 181°
2026-04-26 17:10 35.05963 -80.84769 11875 ft 341 kts 181°
2026-04-26 17:10 35.03576 -80.84746 12578 ft 346 kts 181°
2026-04-26 17:10 35.01155 -80.84726 13294 ft 350 kts 181°
2026-04-26 17:10 34.98706 -80.84708 13961 ft 354 kts 181°
2026-04-26 17:11 34.96221 -80.84692 14546 ft 359 kts 181°
2026-04-26 17:11 34.93713 -80.84677 15146 ft 363 kts 181°
2026-04-26 17:11 34.91175 -80.84664 15737 ft 367 kts 182°
2026-04-26 17:11 34.88608 -80.84649 16298 ft 371 kts 182°
2026-04-26 17:12 34.83387 -80.84616 17490 ft 379 kts 182°
2026-04-26 17:12 34.80733 -80.84599 18101 ft 383 kts 182°
2026-04-26 17:13 34.75346 -80.84574 19227 ft 390 kts 183°
2026-04-26 17:13 34.72623 -80.84598 19770 ft 393 kts 183°
2026-04-26 17:13 34.67176 -80.84479 20022 ft 395 kts 180°
2026-04-26 17:14 34.64420 -80.84286 20027 ft 396 kts 179°
2026-04-26 17:14 34.58928 -80.83750 20021 ft 396 kts 178°
2026-04-26 17:14 34.56183 -80.83465 20020 ft 396 kts 178°
2026-04-26 17:15 34.50685 -80.82927 20014 ft 396 kts 178°
2026-04-26 17:15 34.47936 -80.82674 20010 ft 396 kts 178°
2026-04-26 17:15 34.45179 -80.82427 20009 ft 397 kts 178°
2026-04-26 17:16 34.42426 -80.82183 20014 ft 397 kts 178°
2026-04-26 17:16 34.39668 -80.81935 20016 ft 397 kts 178°
2026-04-26 17:16 34.36956 -80.81690 20015 ft 396 kts 178°
2026-04-26 17:16 34.34198 -80.81442 20012 ft 396 kts 178°
2026-04-26 17:17 34.31447 -80.81192 20009 ft 396 kts 178°
2026-04-26 17:17 34.28695 -80.80940 20014 ft 397 kts 178°
2026-04-26 17:17 34.25943 -80.80689 20008 ft 397 kts 178°
2026-04-26 17:17 34.23187 -80.80438 20006 ft 397 kts 178°
2026-04-26 17:18 34.20430 -80.80193 20005 ft 397 kts 179°
2026-04-26 17:18 34.17667 -80.79971 20003 ft 397 kts 179°
2026-04-26 17:18 34.14911 -80.79755 19975 ft 397 kts 179°
2026-04-26 17:18 34.12143 -80.79537 19972 ft 397 kts 179°
2026-04-26 17:19 34.06619 -80.79101 19969 ft 398 kts 179°
2026-04-26 17:19 34.03861 -80.78882 19967 ft 398 kts 179°
2026-04-26 17:19 34.01093 -80.78662 19967 ft 398 kts 179°
2026-04-26 17:20 33.98332 -80.78442 19964 ft 398 kts 179°
2026-04-26 17:20 33.96501 -80.78294 19960 ft 398 kts 179°
2026-04-26 17:20 33.92801 -80.77996 19957 ft 398 kts 179°
2026-04-26 17:20 33.90071 -80.77774 19961 ft 398 kts 179°
2026-04-26 17:21 33.87273 -80.77548 19958 ft 399 kts 179°
2026-04-26 17:21 33.84503 -80.77323 19959 ft 398 kts 179°
2026-04-26 17:21 33.81738 -80.77100 19955 ft 398 kts 179°
2026-04-26 17:21 33.78971 -80.76876 19956 ft 398 kts 179°
2026-04-26 17:22 33.76236 -80.76653 19955 ft 399 kts 179°
2026-04-26 17:22 33.73432 -80.76425 19953 ft 399 kts 179°
2026-04-26 17:22 33.70673 -80.76201 19776 ft 396 kts 179°
2026-04-26 17:22 33.67969 -80.75981 19332 ft 393 kts 179°
2026-04-26 17:23 33.65213 -80.75759 18856 ft 391 kts 179°
2026-04-26 17:23 33.62502 -80.75544 18393 ft 389 kts 179°
2026-04-26 17:23 33.59853 -80.75337 17888 ft 386 kts 179°
2026-04-26 17:23 33.57150 -80.75133 17343 ft 382 kts 179°
2026-04-26 17:24 33.54543 -80.74942 16822 ft 379 kts 179°
2026-04-26 17:24 33.51919 -80.74755 16317 ft 376 kts 179°
2026-04-26 17:24 33.49328 -80.74577 15816 ft 372 kts 179°
2026-04-26 17:24 33.46751 -80.74405 15316 ft 369 kts 179°
2026-04-26 17:25 33.44199 -80.74240 14831 ft 366 kts 179°
2026-04-26 17:25 33.41666 -80.74081 14343 ft 363 kts 179°
2026-04-26 17:25 33.39157 -80.73926 13869 ft 360 kts 179°
2026-04-26 17:25 33.36665 -80.73776 13332 ft 357 kts 179°
2026-04-26 17:26 33.34194 -80.73629 12804 ft 354 kts 179°
2026-04-26 17:26 33.31741 -80.73484 12348 ft 350 kts 179°
2026-04-26 17:26 33.29356 -80.73341 12218 ft 337 kts 179°
2026-04-26 17:26 33.27062 -80.73200 12085 ft 324 kts 179°
2026-04-26 17:27 33.24853 -80.72965 11956 ft 315 kts 168°
2026-04-26 17:27 33.22947 -80.71778 11778 ft 310 kts 137°
2026-04-26 17:27 33.21797 -80.69644 11459 ft 308 kts 108°
2026-04-26 17:27 33.21259 -80.67169 11094 ft 308 kts 104°
2026-04-26 17:28 33.20659 -80.64717 10748 ft 307 kts 108°
2026-04-26 17:28 33.19997 -80.62298 10416 ft 306 kts 109°
2026-04-26 17:28 33.19316 -80.59895 10131 ft 305 kts 109°
2026-04-26 17:28 33.18641 -80.57498 10004 ft 305 kts 108°
2026-04-26 17:29 33.17981 -80.55104 9994 ft 303 kts 108°
2026-04-26 17:29 33.17549 -80.53515 9993 ft 304 kts 108°
2026-04-26 17:29 33.16685 -80.50297 10005 ft 305 kts 108°
2026-04-26 17:29 33.16042 -80.47890 10006 ft 305 kts 108°
2026-04-26 17:30 33.15398 -80.45476 10008 ft 305 kts 108°
2026-04-26 17:30 33.14755 -80.43063 10007 ft 305 kts 107°
2026-04-26 17:30 33.14021 -80.40694 10009 ft 305 kts 116°
2026-04-26 17:30 33.12906 -80.38551 10009 ft 304 kts 129°
2026-04-26 17:31 33.11447 -80.36745 9886 ft 300 kts 142°
2026-04-26 17:31 33.09828 -80.35211 9769 ft 295 kts 143°
2026-04-26 17:31 33.08237 -80.33703 9636 ft 291 kts 143°
2026-04-26 17:31 33.06667 -80.32212 9498 ft 285 kts 142°
2026-04-26 17:32 33.05131 -80.30751 9375 ft 280 kts 143°
2026-04-26 17:32 33.03638 -80.29346 9246 ft 274 kts 143°
2026-04-26 17:32 33.02153 -80.27967 9113 ft 266 kts 144°
2026-04-26 17:32 33.00735 -80.26657 8912 ft 253 kts 144°
2026-04-26 17:33 32.99349 -80.25382 8494 ft 250 kts 144°
2026-04-26 17:33 32.97981 -80.24130 8071 ft 247 kts 144°
2026-04-26 17:33 32.96626 -80.22890 7657 ft 245 kts 144°
2026-04-26 17:34 32.93946 -80.20451 6779 ft 241 kts 145°
2026-04-26 17:34 32.92618 -80.19254 6357 ft 238 kts 144°
2026-04-26 17:34 32.91301 -80.18071 5860 ft 237 kts 145°
2026-04-26 17:34 32.89994 -80.16894 5390 ft 236 kts 144°
2026-04-26 17:35 32.88688 -80.15721 5120 ft 234 kts 144°
2026-04-26 17:35 32.87393 -80.14558 4878 ft 233 kts 144°
2026-04-26 17:35 32.86097 -80.13407 4596 ft 232 kts 145°
2026-04-26 17:35 32.84804 -80.12258 4258 ft 232 kts 144°
2026-04-26 17:36 32.83516 -80.11122 3965 ft 230 kts 144°
2026-04-26 17:36 32.82235 -80.09992 3760 ft 228 kts 144°
2026-04-26 17:36 32.80963 -80.08870 3556 ft 228 kts 145°
2026-04-26 17:36 32.79697 -80.07737 3360 ft 227 kts 145°
2026-04-26 17:37 32.78434 -80.06616 3216 ft 227 kts 145°
2026-04-26 17:37 32.77167 -80.05494 3107 ft 227 kts 145°
2026-04-26 17:37 32.75906 -80.04364 3004 ft 227 kts 144°
2026-04-26 17:38 32.73364 -80.02135 3011 ft 228 kts 145°
2026-04-26 17:38 32.72087 -80.01013 3013 ft 228 kts 145°
2026-04-26 17:38 32.70813 -79.99891 3006 ft 228 kts 144°
2026-04-26 17:38 32.69559 -79.98782 2741 ft 224 kts 144°
2026-04-26 17:39 32.68300 -79.97675 2407 ft 225 kts 144°
2026-04-26 17:39 32.67041 -79.96575 2112 ft 225 kts 144°
2026-04-26 17:39 32.65783 -79.95486 1999 ft 223 kts 144°
2026-04-26 17:39 32.64523 -79.94398 2011 ft 225 kts 145°
2026-04-26 17:40 32.63250 -79.93297 2007 ft 226 kts 144°
2026-04-26 17:40 32.62839 -79.92942 2007 ft 225 kts 144°
2026-04-26 17:40 32.60813 -79.90985 2001 ft 225 kts 124°
2026-04-26 17:40 32.60309 -79.89255 2010 ft 225 kts 90°
2026-04-26 17:41 32.60684 -79.87520 2006 ft 222 kts 56°
2026-04-26 17:41 32.61805 -79.86301 2012 ft 220 kts 27°
2026-04-26 17:41 32.63180 -79.85510 2003 ft 220 kts 22°
2026-04-26 17:41 32.64610 -79.84903 2001 ft 218 kts
2026-04-26 17:42 32.66031 -79.85339 2010 ft 215 kts 322°
2026-04-26 17:42 32.67138 -79.86527 2003 ft 215 kts 321°
2026-04-26 17:42 32.68373 -79.87520 2003 ft 211 kts 327°
2026-04-26 17:42 32.69572 -79.88405 1998 ft 196 kts 327°
2026-04-26 17:43 32.70699 -79.89248 2000 ft 189 kts 327°
2026-04-26 17:43 32.71799 -79.90075 2039 ft 187 kts 327°
2026-04-26 17:43 32.72891 -79.90897 2013 ft 185 kts 327°
2026-04-26 17:43 32.73975 -79.91715 2003 ft 184 kts 327°
2026-04-26 17:44 32.75060 -79.92533 2000 ft 184 kts 327°
2026-04-26 17:44 32.76146 -79.93352 1997 ft 185 kts 327°
2026-04-26 17:44 32.77231 -79.94171 2001 ft 185 kts 327°
2026-04-26 17:44 32.78318 -79.94991 2012 ft 185 kts 327°
2026-04-26 17:45 32.79406 -79.95812 2011 ft 186 kts 327°
2026-04-26 17:45 32.80477 -79.96622 1961 ft 178 kts 327°
2026-04-26 17:45 32.81487 -79.97384 1807 ft 167 kts 327°
2026-04-26 17:45 32.82438 -79.98103 1613 ft 158 kts 327°
2026-04-26 17:46 32.83325 -79.98774 1431 ft 146 kts 327°
2026-04-26 17:46 32.84174 -79.99415 1244 ft 144 kts 327°
2026-04-26 17:46 32.85014 -80.00050 1051 ft 143 kts 328°
2026-04-26 17:46 32.85849 -80.00682 857 ft 142 kts 328°
2026-04-26 17:47 32.86676 -80.01308 674 ft 141 kts 329°
2026-04-26 17:47 32.86954 -80.01518 637 ft 140 kts 329°
2026-04-26 17:47 32.88306 -80.02548 304 ft 138 kts 330°
2026-04-26 17:47 32.89110 -80.03162 80 ft 135 kts 328°
2026-04-26 17:48 32.89795 -80.03670 44 ft 84 kts 328°
2026-04-26 17:48 32.90115 -80.03908 47 ft 45 kts 329°
2026-04-26 17:48 32.90342 -80.04076 47 ft 28 kts 335°
2026-04-26 17:48 32.90446 -80.04044 48 ft 12 kts 58°
2026-04-26 17:49 32.90485 -80.03960 51 ft 12 kts 73°
2026-04-26 17:49 32.90445 -80.03877 52 ft 13 kts 138°
2026-04-26 17:49 32.90371 -80.03798 49 ft 16 kts 137°
2026-04-26 17:49 32.90286 -80.03706 51 ft 17 kts 137°
2026-04-26 17:50 32.90211 -80.03591 53 ft 17 kts 117°
2026-04-26 17:50 32.90124 -80.03535 50 ft 16 kts 200°
2026-04-26 17:50 32.90000 -80.03567 47 ft 21 kts 181°
2026-04-26 17:50 32.89844 -80.03573 44 ft 24 kts 184°
2026-04-26 17:51 32.89678 -80.03582 42 ft 25 kts 181°
2026-04-26 17:51 32.89508 -80.03586 43 ft 21 kts 183°
2026-04-26 17:51 32.89377 -80.03589 46 ft 19 kts 181°
2026-04-26 17:51 32.89244 -80.03594 47 ft 17 kts 180°
2026-04-26 17:52 32.89119 -80.03594 48 ft 19 kts 182°
2026-04-26 17:52 32.88989 -80.03605 47 ft 18 kts 186°
2026-04-26 17:52 32.88857 -80.03624 41 ft 19 kts 188°
2026-04-26 17:52 32.88762 -80.03670 36 ft 14 kts 249°
2026-04-26 17:53 32.88733 -80.03782 35 ft 15 kts 254°
2026-04-26 17:53 32.88681 -80.03893 36 ft 13 kts 228°
2026-04-26 17:53 32.88617 -80.03917 35 ft 9 kts 129°
2026-04-26 17:54 32.88579 -80.03844 37 ft 0 kts 125°
2026-04-26 17:55 32.88579 -80.03845 37 ft 0 kts 125°